Other Surface Observations
Issued by NWS Tucson, AZ

Home | Current Version | Previous Version | Text Only | Print | Product List | Glossary On
Versions: 1 2 3 4 5 6 7 8 9 10 11 12 13 14 15 16 17 18 19 20 21 22 23 24 25 26 27 28 29 30 31 32 33 34 35 36 37 38 39 40 41 42 43 44 45 46 47 48 49 50
000
SXUS55 KTWC 191915
OSOTWC

WEATHER ROUNDUP FOR SOUTHEAST ARIZONA
NATIONAL WEATHER SERVICE TUCSON AZ
1215 PM MST TUE SEP 19 2017

AZZ504>506-514-192015-
LOCATION       SKY/WX    TMP DP  RH WIND       PRES   REMARKS
TUCSON         MOSUNNY   92  55  28 SW20G30   29.97S
DAVIS-MONTHAN  PTSUNNY   91  55  29 W14       29.95F
CHILDRENS PARK N/A      N/A N/A  39 S4                PIMA CO DEQ
ALVERNON/22ND  N/A       88 N/A N/A SW7               PIMA CO DEQ
CHERRY/GLENN   N/A      N/A N/A N/A N/A               PIMA CO DEQ
TANGERINE      N/A       87 N/A N/A SW7               PIMA CO DEQ
CONTL RANCH    N/A       91  59  34 SW6               PIMA CO DEQ
GRANT/1ST      N/A       89  59  36 SW5               PIMA CO DEQ
CRAYCROFT/22ND N/A       88  59  38 SW7               PIMA CO DEQ
GOLFLINKS/KOLB N/A       88  60  39 SW8               PIMA CO DEQ
AJO/12TH       N/A       89  58  35 SW9               PIMA CO DEQ
FAIRGROUNDS    N/A       87 N/A N/A SW16              PIMA CO DEQ
SAGUARO        N/A       90  62  39 SW3G11            *SABINO CYN
SAN CARLOS     N/A       89  51  27 SW10G17           *SAN CARLOS
GREEN VALLEY   N/A       89  59  36 SW13              PIMA CO DEQ
HORSE CAMP CYN N/A       82  55  39 SW13G22           *ARAVAIPA CYN
RINCON MTNS    N/A       68  52  57 SW6G17            *NR MANNING CAMP
$$

AZZ509>511-192015-
LOCATION       SKY/WX    TMP DP  RH WIND       PRES   REMARKS
SAFFORD        SUNNY     90  46  21 VRB7      29.95F
STRAY HORSE    N/A       65  34  31 W16G27            *
TRAIL CABIN    N/A       76  46  35 W8G19             *N OF GRANVILLE
BLACK HILLS    NOT AVBL
DRY LAKE       N/A       71  47  42 SW6G15            *NATANES MTNS
NOON CREEK     N/A       78  47  33 NE7G13            *PINALENO MTNS
COLUMBINE      N/A       56  53  91 SW12G23           *PINALENO MTNS
GUTHRIE        N/A       73  47  40 SW9G17            *SW OF GUTHRIE
$$

AZZ502-503-513-192015-
LOCATION       SKY/WX    TMP DP  RH WIND       PRES   REMARKS
NOGALES        MOSUNNY   87  59  38 S13G22    30.07S
SELLS          N/A       89  60  38 N/A               *
SASABE         N/A       86  61  43 SW16G26           *ALTAR VLY
HOPKINS        N/A       75  56  51 W9G20             *SANTA RITA MTNS
CARR CYN       N/A       79  53  41 N3G10             *W OF HEREFORD
$$

AZZ507-508-512-192015-
LOCATION       SKY/WX    TMP DP  RH WIND       PRES   REMARKS
SIERRA VISTA   MOSUNNY   84  52  32 W16G24    30.12S
DOUGLAS        PTSUNNY   86  55  34 SW15G21   30.06F
EMPIRE MTNS    NOT AVBL
MULESHOE RANCH N/A       83  52  35 W11G20            *PRESERVE
HEADQUARTERS   N/A       80  51  36 W10G20            *CHIRICAHUA MTNS
$$

.............................NOTES.............................
THIS IS AN AUTOMATED COLLECTIVE WITH MINIMAL QUALITY CONTROL.
PIMA CO DEQ SITES HAVE NONSTANDARD WIND SENSOR HEIGHTS.
PIMA CO DEQ SITES DO NOT REPORT WIND GUSTS.
* INDICATES WIND SENSORS LOCATED AT 20 FEET INSTEAD OF 33 FEET.
..............................KEY..............................
SKY/WX - SKY CONDITION/WEATHER
TMP    - TEMPERATURE IN FAHRENHEIT
DP     - DEWPOINT IN FAHRENHEIT
RH     - RELATIVE HUMIDITY IN PERCENT
WIND   - DIRECTION AND SPEED IN MILES PER HOUR (MPH)
VRB    - VARIABLE WIND DIRECTION
PRES   - MEAN SEA LEVEL PRESSURE IN INCHES OF MERCURY
         F - FALLING PRESSURE   R - RISING PRESSURE
         S - STEADY PRESSURE
VSB    - VISIBILITY IN MILES
HX     - HEAT INDEX IN FAHRENHEIT
WCI    - WIND CHILL INDEX IN FAHRENHEIT
N/A    - NOT AVAILABLE
AFB    - AIR FORCE BASE
         DAVIS-MONTHAN IS DAVIS-MONTHAN AIR FORCE BASE
CYN    - CANYON
MTNS   - MOUNTAINS
NCA    - NATIONAL CONSERVATION AREA
NR     - NEAR
VLY    - VALLEY
CONTL  - CONTINENTAL
PIMA CO DEQ - PIMA COUNTY DEPT OF ENVIRONMENTAL QUALITY



USA.gov is the U.S. government's official web portal to all federal, state and local government web resources and services.